| time (UTC) | temp F | wind direction | speed MPH | gust MPH | rain 1hr in | rain 24hr in | rain mn in | humidity % | barometer mb |
| 20260902051208 | 78 | 129 | 0.0 | 1.0 | 0.00 | 0.00 | 0.00 | 91 | 1016.7 |
| 20260902044203 | 79 | 110 | 1.0 | 1.0 | 0.00 | 0.00 | 0.00 | 91 | 1016.7 |
| 20260902041200 | 78 | 126 | 0.0 | 0.0 | 0.00 | 0.00 | 0.00 | 93 | 1016.8 |
| 20260902034159 | 78 | 112 | 0.0 | 1.0 | 0.00 | 0.00 | 0.00 | 94 | 1017.0 |
| 20260902031155 | 79 | 126 | 0.0 | 0.0 | 0.00 | 0.00 | 0.00 | 94 | 1016.9 |
| 20260902024152 | 79 | 136 | 0.0 | 1.0 | 0.00 | 0.00 | 0.00 | 93 | 1016.7 |
| 20260902021151 | 80 | 168 | 1.0 | 2.0 | 0.00 | 0.00 | 0.00 | 90 | 1016.1 |
| 20260902014150 | 81 | 67 | 1.0 | 2.0 | 0.00 | 0.00 | 0.00 | 88 | 1015.9 |
| 20260902011148 | 81 | 126 | 1.0 | 2.0 | 0.00 | 0.00 | 0.00 | 86 | 1015.7 |
| 20260902004144 | 83 | 323 | 3.0 | 3.0 | 0.00 | 0.00 | 0.00 | 82 | 1016.1 |
| 20260902001143 | 82 | 102 | 1.0 | 2.0 | 0.00 | 0.00 | 0.00 | 83 | 1015.8 |
| 20260901234141 | 82 | 129 | 0.0 | 2.0 | 0.00 | 0.00 | 0.00 | 86 | 1016.0 |
| 20260901231137 | 81 | 132 | 1.0 | 2.0 | 0.00 | 0.00 | 0.00 | 87 | 1016.3 |
| 20260901224137 | 82 | 182 | 1.0 | 2.0 | 0.00 | 0.00 | 0.00 | 81 | 1016.6 |
| 20260901221134 | 89 | 220 | 5.0 | 8.0 | 0.00 | 0.00 | 0.00 | 70 | 1016.9 |
| 20260901214130 | 93 | 78 | 3.0 | 3.0 | 0.00 | 0.00 | 0.00 | 59 | 1016.3 |
| 20260901211130 | 93 | 338 | 2.0 | 3.0 | 0.00 | 0.00 | 0.00 | 59 | 1016.2 |
| 20260901204130 | 95 | 327 | 4.0 | 6.0 | 0.00 | 0.00 | 0.00 | 57 | 1016.3 |
| 20260901201127 | 96 | 217 | 0.0 | 3.0 | 0.00 | 0.00 | 0.00 | 63 | 1017.2 |
| 20260901194122 | 92 | 189 | 0.0 | 2.0 | 0.00 | 0.00 | 0.00 | 68 | 1017.7 |
| 20260901191118 | 91 | 33 | 1.0 | 2.0 | 0.00 | 0.00 | 0.00 | 71 | 1017.7 |
| 20260901184113 | 90 | 131 | 1.0 | 2.0 | 0.00 | 0.00 | 0.00 | 72 | 1017.9 |
| 20260901181109 | 89 | 127 | 0.0 | 1.0 | 0.00 | 0.00 | 0.00 | 73 | 1018.3 |
| 20260901174107 | 88 | 78 | 1.0 | 3.0 | 0.00 | 0.00 | 0.00 | 76 | 1018.9 |
| 20260901171107 | 86 | 65 | 1.0 | 3.0 | 0.00 | 0.00 | 0.00 | 80 | 1019.5 |
| 20260901164104 | 86 | 142 | 1.0 | 3.0 | 0.00 | 0.00 | 0.00 | 83 | 1019.6 |
| 20260901161104 | 85 | 264 | 3.0 | 3.0 | 0.00 | 0.00 | 0.00 | 83 | 1019.6 |
| 20260901154102 | 85 | 74 | 3.0 | 5.0 | 0.00 | 0.00 | 0.00 | 82 | 1019.6 |
| 20260901151058 | 85 | 325 | 3.0 | 3.0 | 0.00 | 0.00 | 0.00 | 84 | 1019.7 |
| 20260901144056 | 83 | 358 | 2.0 | 3.0 | 0.00 | 0.00 | 0.00 | 88 | 1019.8 |
| 20260901141056 | 84 | 148 | 0.0 | 2.0 | 0.00 | 0.00 | 0.00 | 88 | 1019.8 |
| 20260901134052 | 80 | 147 | 1.0 | 2.0 | 0.00 | 0.00 | 0.00 | 94 | 1019.5 |
| 20260901131051 | 78 | 120 | 0.0 | 1.0 | 0.00 | 0.00 | 0.00 | 98 | 1019.4 |
| 20260901124050 | 77 | 88 | 1.0 | 1.0 | 0.00 | 0.00 | 0.00 | 99 | 1019.1 |
| 20260901121050 | 77 | 132 | 0.0 | 0.0 | 0.00 | 0.00 | 0.00 | 99 | 1018.7 |
| 20260901114050 | 77 | 110 | 0.0 | 0.0 | 0.00 | 0.00 | 0.00 | 99 | 1018.7 |
| 20260901111048 | 77 | 106 | 0.0 | 0.0 | 0.00 | 0.00 | 0.00 | 98 | 1018.5 |
| 20260901104045 | 77 | 107 | 0.0 | 0.0 | 0.00 | 0.00 | 0.00 | 97 | 1018.3 |
| 20260901101042 | 77 | 122 | 0.0 | 0.0 | 0.00 | 0.00 | 0.00 | 97 | 1018.1 |
| 20260901094038 | 77 | 120 | 0.0 | 0.0 | 0.00 | 0.00 | 0.00 | 96 | 1018.2 |
| 20260901091033 | 78 | 107 | 0.0 | 0.0 | 0.00 | 0.00 | 0.00 | 96 | 1018.2 |
| 20260901084030 | 77 | 117 | 0.0 | 0.0 | 0.00 | 0.00 | 0.00 | 96 | 1018.6 |
| 20260901081026 | 78 | 117 | 0.0 | 0.0 | 0.00 | 0.00 | 0.00 | 95 | 1018.7 |
| 20260901074021 | 78 | 117 | 0.0 | 0.0 | 0.00 | 0.00 | 0.00 | 94 | 1018.6 |
| 20260901071018 | 79 | 117 | 0.0 | 0.0 | 0.00 | 0.00 | 0.00 | 93 | 1018.6 |
| 20260901064014 | 80 | 116 | 0.0 | 0.0 | 0.00 | 0.00 | 0.00 | 91 | 1018.8 |
| 20260901061012 | 81 | 132 | 0.0 | 0.0 | 0.00 | 0.00 | 0.00 | 88 | 1018.9 |
| 20260901054010 | 81 | 118 | 0.0 | 0.0 | 0.00 | 0.00 | 0.00 | 87 | 1018.9 |